User: anonymous   Login
Location: �quirre
(50.4736°N, 2.2351°E)
Time: 11:47:56
(UTC+00:00)
Language:

Cosmos 1607 - Orbit

View from above orbital plane
View from above orbital plane
View from above satellite
View from above satellite

Ground track
Ground track

The orbit data is extracted from the following two-line orbital elements,

1 15378U 84112A   20304.86151415 -.00000059 +00000-0 +26650-4 0  9998
2 15378 064.9930 341.9072 0057095 297.4189 062.1071 13.83567893820616
Epoch (UTC): 30 October 2020 20:40:34
Eccentricity: 0.0057095
inclination: 64.9930°
perigee height: 909 km
apogee height: 993 km
right ascension of ascending node: 341.9072°
argument of perigee: 297.4189°
revolutions per day: 13.83567893
mean anomaly at epoch: 62.1071°
orbit number at epoch: 82061

The dashed part of the orbit path shows where the satellite is in the earth's shadow,  

DLR